Temp
9 10 10 10 10 10 10 10 9 9 9 9 9 8 8 7 7 7 7 7 7 8 7 7 7 7 7 7 6 7 6 7
9 9 9 9 9 9 9 9 9 9 8 8 8 7 6 6 6 6 6 6 6 6 6 6 6 6 4 5 5 5 5 5
8 7 7 8 8 8 8 9 9 8 8 8 7 6 5 4 4 4 4 4 4 4 4 3 3 3 3 3 3 3 3 4
8 7 6 7 7 7 7 7 8 8 8 7 6 5 4 4 3 3 2 2 2 2 2 2 2 2 2 2 2 3 3 4
9 7 6 6 6 6 6 6 7 7 7 7 6 6 4 2 2 2 2 2 2 2 2 2 2 2 2 2 2 2 2 3
8 8 6 6 6 5 5 5 5 5 6 6 6 4 2 2 1 1 1 1 1 1 1 2 2 2 2 2 1 1 1 1
8 7 6 5 5 5 4 4 4 4 5 4 4 3 2 1 1 1 1 1 1 1 1 1 1 1 0 0 0 -0 -0 -0
7 6 5 3 3 3 4 4 3 3 3 2 2 2 1 1 1 0 -0 0 0 0 1 1 0 -0 -0 -1 -1 -1 -2 -2
7 6 4 3 3 3 3 3 2 2 2 1 1 1 1 1 0 -0 -1 -1 -0 -0 -0 -0 -1 -1 -1 -2 -2 -2 -2 -3
6 5 4 2 2 3 3 3 2 2 1 1 1 1 1 0 -0 -0 -1 -1 -0 -1 -1 -1 -1 -1 -2 -3 -3 -3 -3 -4
6 5 3 3 3 3 3 3 2 2 1 1 1 0 0 -0 -0 -0 -1 -1 -1 -1 -1 -2 -2 -2 -3 -3 -4 -5 -4 -5
5 5 4 3 2 3 2 2 2 1 1 1 0 -0 -0 -0 -0 -1 -1 -1 -1 -2 -2 -2 -2 -3 -3 -3 -4 -5 -5 -6
5 4 3 2 1 2 2 2 2 1 1 1 0 -0 -0 -0 -1 -2 -2 -2 -2 -3 -3 -3 -4 -4 -4 -5 -6 -6 -6 -7
4 3 3 2 1 1 2 2 2 1 1 1 -0 -1 -1 -1 -2 -2 -2 -3 -3 -4 -4 -4 -5 -5 -5 -6 -7 -7 -7 -7
4 3 3 2 1 1 1 2 2 1 1 0 -0 -1 -1 -2 -3 -3 -3 -3 -4 -4 -5 -5 -6 -6 -6 -7 -7 -7 -8 -8
5 4 3 3 2 1 1 1 1 1 1 0 -1 -1 -2 -3 -3 -4 -4 -4 -5 -5 -5 -6 -6 -7 -7 -7 -8 -8 -8 -8
6 5 4 3 2 2 1 1 0 0 -0 -1 -2 -2 -3 -3 -4 -5 -5 -5 -6 -6 -6 -6 -7 -8 -8 -8 -8 -9 -9 -9
7 6 5 4 3 2 1 0 0 -1 -1 -2 -2 -3 -3 -4 -5 -6 -6 -6 -6 -7 -7 -7 -8 -8 -8 -9 -8 -8 -9 -9
7 7 5 4 3 1 1 0 -1 -1 -2 -2 -3 -3 -4 -5 -6 -6 -7 -7 -7 -7 -7 -8 -8 -8 -8 -9 -9 -9 -9 -9
Height
797 801 803 805 807 806 805 807 808 809 810 811 813 813 814 814 814 814 814 813 811 810 809 808 807 806 805 804 804 804 803 799
795 798 802 805 806 807 805 806 807 809 810 811 812 814 815 815 815 815 815 814 812 811 810 809 808 807 806 805 804 803 802 801
792 796 800 803 805 807 806 806 807 809 810 811 812 814 816 817 817 817 816 814 813 812 812 812 810 809 807 807 806 805 805 805
786 791 796 800 802 804 805 806 806 808 809 810 812 814 817 818 818 817 816 816 815 815 815 813 811 810 809 809 810 809 808 807
782 788 793 796 799 802 804 804 805 807 809 809 811 813 815 818 819 819 818 817 816 815 814 812 811 810 810 810 810 810 809 810
774 782 788 793 797 801 804 805 806 807 807 808 809 812 816 819 820 819 818 817 815 814 812 810 810 812 812 812 811 810 810 811
768 776 784 790 795 799 802 804 806 807 808 810 810 812 815 818 820 819 818 817 815 813 812 812 813 816 815 813 813 813 813 810
762 770 778 786 791 797 800 804 806 808 810 811 812 814 815 816 818 820 821 820 818 816 815 815 816 817 816 818 817 817 816 813
755 762 772 781 788 793 799 803 805 809 811 813 814 814 814 816 819 821 822 821 820 819 818 819 818 818 816 818 821 819 817 815
751 760 768 776 783 789 796 801 805 808 811 812 814 815 815 816 819 820 821 822 821 822 822 821 819 818 818 817 820 821 818 816
749 757 766 774 781 786 792 799 803 807 812 812 815 817 816 816 817 820 821 821 822 822 825 826 822 820 820 819 821 822 820 816
750 757 765 772 779 783 790 797 803 808 811 813 814 816 818 817 818 820 821 822 824 824 825 826 824 823 822 820 823 824 822 820
750 758 764 770 777 783 788 794 799 808 812 814 816 817 817 815 818 820 823 821 825 822 827 828 825 825 824 823 825 824 824 823
750 757 762 768 775 782 787 791 798 807 808 811 814 818 818 818 819 821 824 824 826 824 827 830 831 828 827 826 826 825 827 826
743 750 757 766 772 778 782 788 796 803 804 808 813 814 816 820 823 823 826 824 826 826 830 832 835 831 827 826 828 828 828 827
738 743 751 758 765 770 774 782 790 796 798 803 810 812 815 818 821 827 825 825 825 829 831 834 838 833 827 826 831 831 830 828
737 740 738 747 755 760 768 776 783 790 795 800 807 812 814 818 822 825 825 827 828 831 834 835 838 833 827 829 834 833 830 830
727 737 738 740 749 759 768 776 780 787 793 800 806 806 814 816 820 824 823 826 832 833 836 839 836 833 828 833 837 835 833 833
723 727 740 743 747 757 765 771 777 783 790 796 803 806 809 815 821 822 824 826 832 834 837 841 837 833 833 837 839 837 837 837
Wind_Speed
18 19 17 16 14 14 15 15 16 16 16 15 15 15 15 14 16 16 16 16 15 15 15 15 16 17 18 19 20 19 15 24
18 22 19 17 14 13 14 15 17 17 17 14 11 13 12 13 13 13 15 16 16 16 16 15 16 17 18 19 22 22 18 27
16 21 22 19 15 12 12 13 16 17 15 12 9 12 12 12 11 12 14 15 16 16 17 17 17 18 18 19 21 20 10 21
15 19 23 19 18 15 13 14 14 14 14 14 14 12 9 8 11 13 16 16 16 16 16 16 18 19 20 20 19 18 15 14
14 19 19 23 19 17 16 15 15 14 14 14 12 7 7 8 10 10 12 13 14 14 15 17 18 18 19 17 15 16 15 13
18 19 21 24 22 20 16 14 14 14 14 14 15 16 14 11 9 10 12 13 14 15 16 17 18 16 15 14 14 14 12 9
16 22 25 25 25 22 19 16 15 13 14 14 15 17 16 13 11 12 12 13 15 16 16 16 15 14 15 14 13 12 11 9
18 18 22 25 29 26 21 18 17 15 15 15 15 16 15 14 13 12 11 14 17 16 15 14 14 15 14 14 13 13 13 11
19 19 24 26 29 26 22 21 19 16 16 16 15 15 16 15 13 11 11 13 14 12 12 10 11 12 12 11 12 13 12 12
18 20 25 27 30 30 26 22 20 18 17 16 15 15 16 16 13 11 12 10 11 10 9 9 9 10 12 10 11 12 11 14
16 17 25 26 31 30 25 23 22 19 18 16 16 15 15 15 13 13 11 10 10 8 7 7 10 11 10 11 10 10 13 13
14 15 23 25 27 30 27 24 22 20 18 17 17 16 14 12 12 11 9 8 8 7 7 7 9 10 10 10 10 10 13 14
13 17 23 23 24 28 28 26 24 20 19 18 16 15 15 14 12 10 7 8 7 9 8 8 9 10 12 10 10 11 14 16
13 13 17 21 22 25 28 25 23 22 21 20 17 16 14 13 12 9 7 7 8 11 11 10 8 10 11 12 12 13 13 15
14 14 15 21 23 25 28 27 25 24 23 21 19 18 15 12 10 8 6 8 9 10 10 9 7 9 11 12 12 13 12 14
17 16 15 24 26 27 30 32 31 28 26 25 21 18 16 14 11 8 7 8 9 10 11 8 6 10 11 12 11 11 11 15
15 16 21 26 29 29 32 31 30 30 29 26 23 20 17 14 11 10 9 9 10 10 9 9 9 11 15 15 13 15 15 14
16 19 18 26 28 27 27 29 33 30 29 26 24 23 19 16 14 13 13 12 11 12 12 11 12 15 16 14 14 18 20 21
17 15 21 24 25 29 32 32 31 31 28 28 27 24 21 18 17 16 16 15 14 14 12 11 14 16 14 12 13 17 19 20
Wind_Direction
169 165 160 156 154 145 138 134 134 139 132 118 102 88 74 60 50 41 33 30 28 27 28 24 18 15 12 8 7 6 360 348
168 171 167 162 159 153 146 146 143 152 144 128 112 88 70 58 46 35 30 28 28 27 25 19 16 16 13 9 1 0 1 -0
169 170 172 169 162 160 150 149 150 164 161 146 132 115 86 70 56 47 39 35 34 34 32 32 27 25 24 21 17 10 2 10
172 173 178 175 165 158 147 142 147 158 163 156 143 126 103 79 58 51 42 40 41 40 37 34 33 31 30 27 16 16 5 4
175 174 175 175 165 160 150 139 136 143 158 159 162 158 124 89 75 67 56 53 53 49 47 43 37 34 33 25 17 18 15 4
177 175 170 174 165 159 151 143 137 137 138 142 138 120 117 112 100 83 71 62 56 52 51 47 43 38 35 24 25 22 29 23
170 163 164 165 165 159 154 144 131 131 134 132 129 126 125 118 104 88 73 62 56 54 53 50 50 39 35 38 36 35 29 28
165 162 159 158 163 161 151 147 136 137 133 129 126 124 120 112 107 95 74 58 49 50 49 51 54 50 43 43 43 33 29 33
172 165 159 159 161 160 159 154 142 142 139 132 127 124 117 112 108 101 84 62 51 52 53 52 55 57 41 44 45 29 27 36
168 158 158 159 161 166 165 157 148 147 144 137 131 127 121 118 108 99 96 74 57 56 58 58 62 55 49 48 52 27 34 40
161 158 156 160 165 167 164 163 156 152 151 142 136 133 126 121 111 103 87 69 56 62 66 62 61 55 48 45 52 35 38 46
159 154 154 155 160 163 165 163 158 158 157 149 142 138 135 125 112 106 88 66 57 71 76 71 63 51 47 48 45 44 49 47
152 148 148 151 155 162 165 165 164 165 163 152 144 142 137 127 122 108 91 77 74 81 75 70 70 53 48 61 63 61 55 45
145 149 156 155 158 163 168 167 167 171 164 159 153 149 138 131 128 118 95 79 83 95 87 77 66 61 66 70 71 67 61 50
158 158 160 160 163 168 171 171 174 173 166 164 162 154 144 141 137 120 108 91 103 100 93 78 58 74 78 73 68 67 66 58
172 165 165 169 173 174 172 176 177 176 168 165 164 157 151 149 143 142 121 110 109 113 101 87 84 68 67 72 70 70 66 60
183 185 174 178 178 174 175 174 168 170 166 164 164 160 153 153 152 145 126 118 118 126 105 114 97 76 78 75 80 74 67 64
178 204 196 180 179 174 168 162 165 163 164 168 169 162 161 156 157 151 133 125 128 126 121 114 93 86 83 83 88 83 77 70
210 189 192 183 171 165 161 159 157 163 165 168 172 167 161 159 157 143 134 132 129 123 123 119 98 86 86 91 97 91 87 79